SAS1054 ESMS-ESSA

Flight info

Callsign SAS1054
Flight time 0h 53m
Altitude 35000
Route NEXIL N851 ROXEN DCT MIKNA N851 PELUP Z226 NILUG
Aircraft A320/M-SDE3FGHIRWY/LB1

Departure

Time 2026-04-23 09:54
Airport Malmö Sturup Airport (ESMS)

Arrival

Time 2026-04-23 10:47
Airport Stockholm-Arlanda Airport (ESSA)
Time Latitude Longitude Altitude Speed Heading
2026-04-23 09:40 55.54087 13.36670 231 ft 0 kts 173°
2026-04-23 09:44 55.54088 13.36670 231 ft 1 kts 173°
2026-04-23 09:45 55.54104 13.36667 231 ft 3 kts 173°
2026-04-23 09:45 55.54123 13.36662 235 ft 3 kts 163°
2026-04-23 09:45 55.54141 13.36649 232 ft 3 kts 139°
2026-04-23 09:45 55.54151 13.36625 231 ft 3 kts 96°
2026-04-23 09:46 55.54152 13.36612 231 ft 0 kts 84°
2026-04-23 09:48 55.54152 13.36615 231 ft 2 kts 84°
2026-04-23 09:48 55.54156 13.36671 231 ft 7 kts 84°
2026-04-23 09:49 55.54163 13.36797 231 ft 12 kts 84°
2026-04-23 09:49 55.54176 13.36957 231 ft 14 kts 81°
2026-04-23 09:49 55.54195 13.37113 231 ft 11 kts 72°
2026-04-23 09:49 55.54159 13.37216 231 ft 13 kts 166°
2026-04-23 09:50 55.54049 13.37242 231 ft 18 kts 173°
2026-04-23 09:50 55.53922 13.37267 232 ft 20 kts 174°
2026-04-23 09:50 55.53777 13.37294 231 ft 22 kts 174°
2026-04-23 09:50 55.53612 13.37331 233 ft 26 kts 173°
2026-04-23 09:51 55.53420 13.37370 232 ft 29 kts 174°
2026-04-23 09:51 55.53210 13.37414 232 ft 31 kts 173°
2026-04-23 09:51 55.52988 13.37456 233 ft 33 kts 174°
2026-04-23 09:51 55.52754 13.37509 231 ft 35 kts 173°
2026-04-23 09:52 55.52556 13.37549 231 ft 24 kts 173°
2026-04-23 09:52 55.52413 13.37631 232 ft 22 kts 143°
2026-04-23 09:52 55.52322 13.37759 233 ft 12 kts 128°
2026-04-23 09:52 55.52316 13.37843 238 ft 5 kts 82°
2026-04-23 09:53 55.52339 13.37898 238 ft 6 kts 358°
2026-04-23 09:53 55.52549 13.37841 239 ft 65 kts 353°
2026-04-23 09:53 55.53201 13.37708 240 ft 121 kts 353°
2026-04-23 09:53 55.54150 13.37489 436 ft 144 kts 349°
2026-04-23 09:54 55.55126 13.37246 1082 ft 140 kts 350°
2026-04-23 09:54 55.56104 13.37010 1686 ft 144 kts 351°
2026-04-23 09:54 55.57134 13.36770 2195 ft 156 kts 352°
2026-04-23 09:54 55.58274 13.36512 2573 ft 175 kts 352°
2026-04-23 09:55 55.59520 13.36243 2878 ft 199 kts 353°
2026-04-23 09:55 55.60981 13.35944 3292 ft 222 kts 354°
2026-04-23 09:55 55.62577 13.36066 3871 ft 240 kts 12°
2026-04-23 09:55 55.64162 13.37260 4527 ft 256 kts 31°
2026-04-23 09:56 55.65579 13.39132 5569 ft 253 kts 36°
2026-04-23 09:56 55.66949 13.41129 6464 ft 258 kts 36°
2026-04-23 09:56 55.68345 13.43166 7329 ft 261 kts 35°
2026-04-23 09:56 55.69776 13.45166 8155 ft 264 kts 34°
2026-04-23 09:57 55.71255 13.47154 8971 ft 268 kts 33°
2026-04-23 09:57 55.72776 13.49150 9785 ft 273 kts 33°
2026-04-23 09:57 55.74304 13.51125 10464 ft 280 kts 32°
2026-04-23 09:57 55.75960 13.53239 10703 ft 303 kts 32°
2026-04-23 09:58 55.77742 13.55507 10862 ft 327 kts 32°
2026-04-23 09:58 55.79640 13.57931 11213 ft 341 kts 33°
2026-04-23 09:58 55.81582 13.60425 11821 ft 346 kts 33°
2026-04-23 09:58 55.83542 13.62954 12515 ft 350 kts 33°
2026-04-23 09:59 55.85513 13.65507 13243 ft 352 kts 33°
2026-04-23 09:59 55.87478 13.68050 13950 ft 354 kts 33°
2026-04-23 09:59 55.89482 13.70639 14573 ft 356 kts 33°
2026-04-23 09:59 55.91505 13.73251 15201 ft 358 kts 33°
2026-04-23 10:00 55.93529 13.75864 15829 ft 360 kts 33°
2026-04-23 10:00 55.95561 13.78496 16447 ft 361 kts 33°
2026-04-23 10:00 55.97600 13.81141 17085 ft 363 kts 33°
2026-04-23 10:00 55.99650 13.83804 17725 ft 365 kts 33°
2026-04-23 10:01 56.01712 13.86486 18377 ft 368 kts 33°
2026-04-23 10:01 56.03764 13.89159 18947 ft 371 kts 33°
2026-04-23 10:01 56.05854 13.91889 19499 ft 374 kts 33°
2026-04-23 10:01 56.07969 13.94656 20044 ft 377 kts 33°
2026-04-23 10:02 56.10096 13.97439 20583 ft 380 kts 33°
2026-04-23 10:02 56.12239 14.00243 21095 ft 383 kts 33°
2026-04-23 10:02 56.14397 14.03070 21581 ft 386 kts 33°
2026-04-23 10:02 56.16572 14.05926 22047 ft 389 kts 33°
2026-04-23 10:03 56.18767 14.08814 22500 ft 391 kts 33°
2026-04-23 10:03 56.20964 14.11708 22949 ft 394 kts 33°
2026-04-23 10:03 56.23182 14.14638 23392 ft 396 kts 33°
2026-04-23 10:03 56.25415 14.17593 23811 ft 399 kts 33°
2026-04-23 10:04 56.27655 14.20560 24178 ft 401 kts 33°
2026-04-23 10:04 56.29908 14.23546 24547 ft 403 kts 33°
2026-04-23 10:04 56.32149 14.26517 24902 ft 405 kts 33°
2026-04-23 10:04 56.34425 14.29535 25248 ft 407 kts 33°
2026-04-23 10:05 56.36711 14.32568 25598 ft 408 kts 33°
2026-04-23 10:05 56.39001 14.35615 25950 ft 410 kts 33°
2026-04-23 10:05 56.41301 14.38687 26303 ft 412 kts 33°
2026-04-23 10:05 56.43614 14.41780 26658 ft 414 kts 33°
2026-04-23 10:06 56.45902 14.44847 26995 ft 415 kts 33°
2026-04-23 10:06 56.48227 14.47968 27335 ft 417 kts 33°
2026-04-23 10:06 56.50562 14.51108 27671 ft 419 kts 33°
2026-04-23 10:06 56.52900 14.54261 28049 ft 419 kts 33°
2026-04-23 10:07 56.55240 14.57419 28532 ft 417 kts 33°
2026-04-23 10:07 56.57568 14.60560 29027 ft 416 kts 33°
2026-04-23 10:07 56.59852 14.63646 29514 ft 414 kts 33°
2026-04-23 10:07 56.62153 14.66769 30120 ft 410 kts 32°
2026-04-23 10:08 56.64426 14.69865 30663 ft 406 kts 32°
2026-04-23 10:08 56.66683 14.72930 31123 ft 404 kts 32°
2026-04-23 10:08 56.68935 14.75992 31532 ft 403 kts 32°
2026-04-23 10:09 56.73400 14.82077 32359 ft 401 kts 33°
2026-04-23 10:09 56.75636 14.85139 32772 ft 400 kts 33°
2026-04-23 10:09 56.77834 14.88148 33211 ft 399 kts 32°
2026-04-23 10:09 56.80058 14.91188 33635 ft 397 kts 32°
2026-04-23 10:10 56.82277 14.94230 34060 ft 396 kts 33°
2026-04-23 10:10 56.84481 14.97265 34435 ft 396 kts 33°
2026-04-23 10:10 56.86654 15.00267 34782 ft 395 kts 33°
2026-04-23 10:10 56.88851 15.03306 35107 ft 395 kts 33°
2026-04-23 10:11 56.91048 15.06341 35422 ft 394 kts 33°
2026-04-23 10:11 56.93240 15.09368 35728 ft 394 kts 33°
2026-04-23 10:11 56.95434 15.12387 36036 ft 393 kts 33°
2026-04-23 10:11 56.97596 15.15370 36324 ft 393 kts 33°
2026-04-23 10:12 56.99781 15.18403 36609 ft 393 kts 33°
2026-04-23 10:12 57.01960 15.21444 36911 ft 392 kts 33°
2026-04-23 10:12 57.04134 15.24479 37129 ft 393 kts 33°
2026-04-23 10:12 57.06329 15.27551 37171 ft 397 kts 33°
2026-04-23 10:13 57.10722 15.33699 37169 ft 400 kts 33°
2026-04-23 10:13 57.15164 15.39942 37169 ft 401 kts 33°
2026-04-23 10:14 57.19602 15.46197 37168 ft 401 kts 33°
2026-04-23 10:14 57.24015 15.52407 37184 ft 401 kts 33°
2026-04-23 10:15 57.28456 15.58691 37187 ft 401 kts 33°
2026-04-23 10:15 57.32889 15.64998 37188 ft 402 kts 33°
2026-04-23 10:16 57.37289 15.71281 37231 ft 402 kts 33°
2026-04-23 10:16 57.41672 15.77549 37168 ft 395 kts 33°
2026-04-23 10:17 57.46028 15.83775 37169 ft 396 kts 33°
2026-04-23 10:17 57.50392 15.90042 37186 ft 396 kts 32°
2026-04-23 10:18 57.54752 15.96340 37183 ft 396 kts 33°
2026-04-23 10:18 57.59106 16.02654 37182 ft 396 kts 33°
2026-04-23 10:19 57.63434 16.08939 37179 ft 396 kts 33°
2026-04-23 10:19 57.67784 16.15285 37172 ft 396 kts 33°
2026-04-23 10:20 57.72121 16.21635 37172 ft 396 kts 33°
2026-04-23 10:20 57.76474 16.28009 37172 ft 396 kts 33°
2026-04-23 10:21 57.78649 16.31198 37033 ft 397 kts 33°
2026-04-23 10:21 57.80815 16.34378 36767 ft 395 kts 33°
2026-04-23 10:21 57.82982 16.37567 36505 ft 395 kts 33°
2026-04-23 10:21 57.85145 16.40756 36247 ft 396 kts 33°
2026-04-23 10:22 57.87283 16.43918 35998 ft 396 kts 33°
2026-04-23 10:22 57.89447 16.47130 35748 ft 397 kts 33°
2026-04-23 10:22 57.91613 16.50346 35495 ft 397 kts 32°
2026-04-23 10:22 57.93786 16.53573 35247 ft 398 kts 32°
2026-04-23 10:23 57.95956 16.56804 35013 ft 398 kts 32°
2026-04-23 10:23 57.98124 16.60036 34769 ft 397 kts 32°
2026-04-23 10:23 58.00288 16.63266 34525 ft 397 kts 32°
2026-04-23 10:23 58.02454 16.66502 34282 ft 397 kts 32°
2026-04-23 10:24 58.04622 16.69742 34044 ft 398 kts 32°
2026-04-23 10:24 58.06794 16.72992 33760 ft 399 kts 32°
2026-04-23 10:24 58.08968 16.76251 33486 ft 400 kts 32°
2026-04-23 10:24 58.11151 16.79532 33218 ft 401 kts 32°
2026-04-23 10:25 58.13334 16.82821 32952 ft 402 kts 32°
2026-04-23 10:25 58.15520 16.86127 32724 ft 401 kts 32°
2026-04-23 10:25 58.17701 16.89433 32462 ft 401 kts 32°
2026-04-23 10:25 58.19854 16.92704 32223 ft 402 kts 32°
2026-04-23 10:26 58.22042 16.96026 31969 ft 403 kts 32°
2026-04-23 10:26 58.24233 16.99352 31711 ft 404 kts 32°
2026-04-23 10:26 58.26436 17.02700 31459 ft 405 kts 32°
2026-04-23 10:26 58.28638 17.06050 31209 ft 406 kts 32°
2026-04-23 10:27 58.30844 17.09416 30957 ft 407 kts 32°
2026-04-23 10:27 58.33064 17.12812 30514 ft 407 kts 32°
2026-04-23 10:27 58.35276 17.16200 29506 ft 411 kts 32°
2026-04-23 10:27 58.37470 17.19567 28591 ft 411 kts 32°
2026-04-23 10:28 58.39703 17.23001 27593 ft 412 kts 33°
2026-04-23 10:28 58.41942 17.26453 26579 ft 414 kts 33°
2026-04-23 10:28 58.44184 17.29911 25766 ft 413 kts 33°
2026-04-23 10:28 58.46396 17.33334 25132 ft 407 kts 33°
2026-04-23 10:29 58.48586 17.36733 24437 ft 403 kts 33°
2026-04-23 10:29 58.50755 17.40101 23769 ft 400 kts 33°
2026-04-23 10:29 58.52907 17.43441 23023 ft 397 kts 33°
2026-04-23 10:29 58.55036 17.46746 22365 ft 391 kts 33°
2026-04-23 10:30 58.57129 17.50007 21715 ft 386 kts 33°
2026-04-23 10:30 58.59206 17.53248 21070 ft 382 kts 33°
2026-04-23 10:30 58.61238 17.56419 20437 ft 379 kts 34°
2026-04-23 10:30 58.63285 17.59616 19800 ft 377 kts 34°
2026-04-23 10:31 58.64632 17.61726 19389 ft 376 kts 34°
2026-04-23 10:31 58.67334 17.65970 18596 ft 374 kts 34°
2026-04-23 10:31 58.68664 17.68062 18158 ft 373 kts 34°
2026-04-23 10:31 58.70671 17.71214 17565 ft 370 kts 34°
2026-04-23 10:32 58.72660 17.74343 17004 ft 367 kts 34°
2026-04-23 10:32 58.74622 17.77445 16473 ft 362 kts 34°
2026-04-23 10:32 58.76554 17.80509 15939 ft 358 kts 34°
2026-04-23 10:32 58.78478 17.83513 15404 ft 352 kts 31°
2026-04-23 10:33 58.80556 17.85932 14735 ft 347 kts 21°
2026-04-23 10:33 58.82773 17.87495 14176 ft 340 kts 12°
2026-04-23 10:33 58.85086 17.88265 13574 ft 334 kts
2026-04-23 10:33 58.87400 17.88309 12996 ft 329 kts 358°
2026-04-23 10:34 58.89674 17.88245 12421 ft 325 kts 358°
2026-04-23 10:34 58.91928 17.88190 11848 ft 322 kts 358°
2026-04-23 10:34 58.94165 17.88133 11270 ft 320 kts 358°
2026-04-23 10:34 58.96349 17.88073 10969 ft 310 kts 358°
2026-04-23 10:35 58.98463 17.88015 10845 ft 296 kts 358°
2026-04-23 10:35 59.00482 17.87961 10724 ft 283 kts 358°
2026-04-23 10:35 59.02420 17.87907 10592 ft 272 kts 358°
2026-04-23 10:35 59.04258 17.87857 10448 ft 263 kts 358°
2026-04-23 10:36 59.06072 17.87808 10202 ft 259 kts 358°
2026-04-23 10:36 59.07865 17.87760 9969 ft 257 kts 358°
2026-04-23 10:36 59.09654 17.87713 9820 ft 256 kts 358°
2026-04-23 10:36 59.11439 17.87666 9688 ft 256 kts 358°
2026-04-23 10:37 59.13204 17.87619 9553 ft 256 kts 358°
2026-04-23 10:37 59.14988 17.87571 9426 ft 256 kts 358°
2026-04-23 10:37 59.16788 17.87520 8990 ft 261 kts 358°
2026-04-23 10:37 59.18591 17.87472 8685 ft 258 kts 358°
2026-04-23 10:38 59.20382 17.87423 8299 ft 255 kts 358°
2026-04-23 10:38 59.22130 17.87373 7664 ft 254 kts 358°
2026-04-23 10:38 59.23902 17.87318 7041 ft 254 kts 358°
2026-04-23 10:38 59.25665 17.87267 6421 ft 252 kts 358°
2026-04-23 10:39 59.27418 17.87217 5770 ft 251 kts 358°
2026-04-23 10:39 59.29152 17.87169 5368 ft 241 kts 358°
2026-04-23 10:39 59.30759 17.87128 5272 ft 228 kts 357°
2026-04-23 10:39 59.32311 17.87088 5200 ft 218 kts 358°
2026-04-23 10:40 59.33818 17.87046 5203 ft 215 kts 358°
2026-04-23 10:40 59.35320 17.87002 5165 ft 215 kts 358°
2026-04-23 10:40 59.36816 17.86959 5115 ft 214 kts 358°
2026-04-23 10:40 59.38287 17.86913 5063 ft 214 kts 356°
2026-04-23 10:41 59.39784 17.86993 4842 ft 214 kts
2026-04-23 10:41 59.41262 17.87396 4551 ft 214 kts
2026-04-23 10:41 59.42729 17.87905 4262 ft 214 kts
2026-04-23 10:41 59.44192 17.88430 3971 ft 211 kts
2026-04-23 10:42 59.45592 17.88934 3677 ft 199 kts
2026-04-23 10:42 59.46911 17.89409 3431 ft 186 kts
2026-04-23 10:42 59.48140 17.89849 3178 ft 178 kts
2026-04-23 10:42 59.49326 17.90275 2916 ft 168 kts
2026-04-23 10:43 59.50470 17.90686 2684 ft 164 kts
2026-04-23 10:43 59.51577 17.91084 2432 ft 156 kts
2026-04-23 10:43 59.52571 17.91444 2241 ft 135 kts
2026-04-23 10:43 59.53449 17.91759 2063 ft 127 kts
2026-04-23 10:44 59.54308 17.92067 1895 ft 124 kts
2026-04-23 10:44 59.55158 17.92371 1724 ft 126 kts
2026-04-23 10:44 59.56033 17.92683 1553 ft 128 kts
2026-04-23 10:44 59.56920 17.93001 1358 ft 130 kts
2026-04-23 10:45 59.57809 17.93315 1209 ft 129 kts
2026-04-23 10:45 59.58700 17.93638 1037 ft 130 kts
2026-04-23 10:45 59.59582 17.93956 829 ft 128 kts
2026-04-23 10:45 59.60454 17.94269 629 ft 129 kts
2026-04-23 10:46 59.61334 17.94591 472 ft 131 kts
2026-04-23 10:46 59.62229 17.94920 263 ft 130 kts
2026-04-23 10:46 59.63106 17.95242 133 ft 120 kts
2026-04-23 10:46 59.63757 17.95482 116 ft 70 kts 10°
2026-04-23 10:47 59.64106 17.95541 112 ft 39 kts 348°
2026-04-23 10:47 59.64326 17.95389 107 ft 33 kts 339°
2026-04-23 10:47 59.64519 17.95351 105 ft 28 kts
2026-04-23 10:47 59.64719 17.95420 106 ft 30 kts 10°
2026-04-23 10:48 59.64922 17.95490 108 ft 30 kts 10°
2026-04-23 10:48 59.65117 17.95475 115 ft 27 kts 345°
2026-04-23 10:48 59.65292 17.95381 125 ft 25 kts 345°
2026-04-23 10:48 59.65456 17.95296 127 ft 25 kts 345°
2026-04-23 10:49 59.65624 17.95207 127 ft 21 kts 344°
2026-04-23 10:49 59.65741 17.95108 127 ft 16 kts 298°
2026-04-23 10:49 59.65729 17.94865 121 ft 19 kts 255°
2026-04-23 10:49 59.65694 17.94599 123 ft 20 kts 256°
2026-04-23 10:50 59.65659 17.94323 122 ft 21 kts 256°
2026-04-23 10:50 59.65621 17.94020 117 ft 25 kts 256°
2026-04-23 10:50 59.65575 17.93645 113 ft 28 kts 256°
2026-04-23 10:50 59.65540 17.93394 110 ft 14 kts 252°
2026-04-23 10:51 59.65462 17.93346 111 ft 13 kts 169°
2026-04-23 10:51 59.65383 17.93382 110 ft 12 kts 167°
2026-04-23 10:51 59.65312 17.93419 112 ft 7 kts 155°
2026-04-23 10:51 59.65308 17.93493 112 ft 6 kts 73°
2026-04-23 10:52 59.65316 17.93552 110 ft 2 kts 76°
2026-04-23 10:52 59.65318 17.93569 111 ft 0 kts 75°